User: anonymous   Login
Location: Unspecified
(0.0000°N, 0.0000°E)
Time: 03:51:55
(UTC+00:00)
Language:

TIMED - Orbit

View from above orbital plane
View from above orbital plane
View from above satellite
View from above satellite

Ground track
Ground track

The orbit data is extracted from the following two-line orbital elements,

1 26998U 01055B   18292.60679863 +.00000099 +00000-0 +14849-4 0  9990
2 26998 074.0727 061.1335 0002253 292.4471 067.6471 14.88056059914228
Epoch (UTC): 19 October 2018 14:33:47
Eccentricity: 0.0002253
inclination: 74.0727°
perigee height: 602 km
apogee height: 605 km
right ascension of ascending node: 61.1335°
argument of perigee: 292.4471°
revolutions per day: 14.88056059
mean anomaly at epoch: 67.6471°
orbit number at epoch: 91422

The dashed part of the orbit path shows where the satellite is in the earth's shadow,  

DLR